[[{"header":{"parameterUnit":"m.s-1","parameterCategory":1,"la1":30.2992,"la2":30.254,"lo1":-89.0895,"lo2":-89.0443,"dy":0.0025,"dx":0.0025,"nx":19,"ny":19,"refTime":"2026-05-05T09:00:00:Z","depth":0,"parameterNumber":2,"parameterNumberName":"U-component_of_WINDS"},"data":[0,0,0,-0.9742,-0.9742,-0.9772,-0.9773,-0.9798,-0.9798,0,0,0,0,0,0,0,0,0,0,0,-0.9725,-0.9725,-0.9742,-0.9742,-0.9772,-0.9773,-0.9798,-0.9798,0,0,0,0,0,0,0,0,0,0,0,-0.9726,-0.9725,-0.9725,-0.9742,-0.9772,-0.9773,-0.9798,-0.978,0,0,0,0,0,0,0,0,0,0,-0.9753,-0.973,-0.9725,-0.9725,-0.9743,-0.9772,-0.9773,-0.9779,-0.9781,-0.9779,0,-0.9776,0,-0.9787,-0.9799,-0.9799,0,0,0,-0.9748,-0.9729,-0.9744,-0.9725,-0.9743,-0.9772,-0.976,-0.978,-0.9782,-0.9781,-0.9776,-0.9777,-0.9788,-0.9799,-0.9799,-0.9771,-0.9771,0,0,-0.9746,-0.9727,-0.9742,-0.9745,-0.974,-0.9759,-0.9761,-0.9782,-0.9774,-0.9776,-0.9778,-0.9788,-0.9799,-0.9799,-0.9772,-0.9771,0,0,0,-0.9738,-0.9725,-0.974,-0.9743,-0.975,-0.976,-0.9762,-0.9774,-0.978,-0.9778,-0.9788,-0.9799,-0.9799,-0.9772,-0.9772,-0.9734,0,0,0,-0.9737,-0.972,-0.9739,-0.9727,-0.9749,-0.9762,-0.9753,-0.9779,-0.9782,-0.9788,-0.9799,-0.9799,-0.9773,-0.9772,-0.9736,-0.9718,0,0,0,-0.9726,-0.9719,-0.9721,-0.9726,-0.9739,-0.9762,-0.977,-0.978,-0.9787,-0.9799,-0.9799,-0.9773,-0.9772,-0.9737,-0.9721,-0.9705,0,0,0,-0.9708,-0.9686,-0.972,-0.9699,-0.9738,-0.9739,-0.977,-0.9772,-0.9777,-0.9799,-0.9773,-0.9772,-0.9738,-0.9723,-0.9707,-0.9687,-0.9677,0,0,-0.9669,-0.9681,-0.967,-0.9701,-0.9691,-0.9736,-0.972,-0.9744,-0.9762,-0.9767,-0.9767,-0.9735,-0.9721,-0.9705,-0.9631,-0.9623,0,0,0,-0.9651,-0.9643,-0.9645,-0.965,-0.9668,-0.9682,-0.971,-0.9718,-0.9724,-0.9761,-0.9726,-0.9718,-0.971,-0.9701,-0.9694,-0.9688,-0.9767,-0.9767,-0.9767,-0.9566,-0.9593,-0.9577,-0.9607,-0.9611,-0.9641,-0.9647,-0.9664,-0.9688,-0.968,-0.9681,-0.9633,-0.9622,-0.9617,-0.961,-0.9674,-0.9674,-0.9673,-0.9673,-0.9511,-0.9503,-0.9538,-0.9535,-0.9563,-0.956,-0.9589,-0.9606,-0.9608,-0.9634,-0.9628,-0.9653,-0.9608,-0.9603,-0.9671,-0.9671,-0.9672,-0.9672,-0.9672,-0.9457,-0.9458,-0.947,-0.9481,-0.9486,-0.9518,-0.9518,-0.9543,-0.9567,-0.9561,-0.9565,-0.9565,-0.9568,-0.9561,-0.9561,-0.9561,-0.9561,-0.9561,-0.9561,-0.9396,-0.9411,-0.9408,-0.9427,-0.9434,-0.9446,-0.9477,-0.9485,-0.9499,-0.9518,-0.9518,-0.9542,-0.9599,-0.9612,-0.9558,-0.9559,-0.9559,-0.9559,-0.9559,-0.9327,-0.9347,-0.9342,-0.935,-0.9374,-0.9377,-0.9411,-0.9424,-0.9434,-0.9433,-0.9461,-0.9498,-0.9511,-0.9517,-0.9528,-0.9456,-0.9456,-0.9456,-0.9456,-0.928,-0.929,-0.9292,-0.9302,-0.9315,-0.9345,-0.9339,-0.9363,-0.9391,-0.9399,-0.9414,-0.9431,-0.9435,-0.9445,-0.9453,-0.9463,-0.9376,-0.9376,-0.9376,-0.9239,-0.9252,-0.9241,-0.927,-0.9292,-0.9309,-0.9304,-0.9314,-0.935,-0.9373,-0.9405,-0.9409,-0.9437,-0.9444,-0.9466,-0.9476,-0.9496,0,0]},{"header":{"parameterUnit":"m.s-1","parameterCategory":1,"la1":30.2992,"la2":30.254,"lo1":-89.0895,"lo2":-89.0443,"dy":0.0025,"dx":0.0025,"nx":19,"ny":19,"refTime":"2026-05-05T09:00:00:Z","depth":0,"parameterNumber":3,"parameterNumberName":"V-component_of_WINDS"},"data":[0,0,0,6.5292,6.5295,6.5442,6.5442,6.5626,6.5627,0,0,0,0,0,0,0,0,0,0,0,6.5251,6.5252,6.5292,6.5296,6.5442,6.5442,6.5625,6.5627,0,0,0,0,0,0,0,0,0,0,0,6.525,6.5252,6.5253,6.5296,6.5442,6.5442,6.5625,6.5515,0,0,0,0,0,0,0,0,0,0,6.5373,6.5338,6.5251,6.5253,6.5297,6.5441,6.5442,6.551,6.5522,6.5559,0,6.5597,0,6.5616,6.564,6.5641,0,0,0,6.5293,6.5328,6.5366,6.5254,6.5298,6.5441,6.5375,6.5516,6.553,6.5575,6.56,6.5606,6.5619,6.5641,6.5642,6.5877,6.5878,0,0,6.5285,6.5277,6.5356,6.5375,6.5357,6.537,6.538,6.5525,6.5549,6.56,6.5611,6.5622,6.5642,6.5644,6.5876,6.5877,0,0,0,6.5263,6.5271,6.5306,6.5367,6.5394,6.5375,6.5385,6.5542,6.5554,6.5613,6.5624,6.5643,6.5646,6.5875,6.5877,6.5931,0,0,0,6.5258,6.5259,6.5303,6.5299,6.5392,6.5471,6.5399,6.5544,6.5561,6.5623,6.5644,6.5648,6.5873,6.5876,6.5926,6.5956,0,0,0,6.524,6.5257,6.5279,6.5298,6.5362,6.5469,6.5489,6.5548,6.5568,6.5641,6.5648,6.5872,6.5875,6.5922,6.595,6.6016,0,0,0,6.5217,6.5323,6.528,6.5401,6.536,6.5503,6.5489,6.5594,6.5663,6.5644,6.5874,6.5876,6.5921,6.5946,6.6012,6.607,6.6094,0,0,6.5345,6.5338,6.541,6.5376,6.5525,6.5481,6.5636,6.5705,6.5716,6.5822,6.5828,6.5928,6.595,6.6015,6.6232,6.6251,0,0,0,6.5448,6.55,6.5541,6.5608,6.5666,6.5717,6.5763,6.5789,6.5879,6.5771,6.597,6.5983,6.6022,6.605,6.6066,6.6099,6.5889,6.5889,6.5889,6.5616,6.563,6.575,6.5781,6.5846,6.5894,6.5947,6.5989,6.598,6.6027,6.6058,6.6188,6.6221,6.6233,6.6267,6.609,6.6091,6.6091,6.6091,6.5804,6.5879,6.5869,6.5982,6.5994,6.6088,6.6137,6.6129,6.6215,6.6166,6.62,6.6144,6.6254,6.6284,6.6095,6.6095,6.6094,6.6094,6.6093,6.5914,6.5953,6.5985,6.6085,6.6159,6.6186,6.6271,6.6278,6.6285,6.6319,6.6352,6.6351,6.635,6.6335,6.6336,6.6336,6.6336,6.6337,6.6337,6.6016,6.6051,6.6124,6.6196,6.624,6.6299,6.6349,6.6392,6.6441,6.6439,6.6439,6.6425,6.6263,6.6221,6.6344,6.6343,6.6342,6.6341,6.6341,6.6199,6.616,6.6272,6.6318,6.6402,6.6475,6.6485,6.6572,6.6608,6.6649,6.6629,6.6508,6.6499,6.6486,6.6452,6.6627,6.6627,6.6627,6.6627,6.6292,6.629,6.6407,6.6479,6.655,6.657,6.6694,6.6733,6.6767,6.679,6.6766,6.6721,6.6708,6.6706,6.6689,6.6657,6.688,6.688,6.688,6.6405,6.641,6.6516,6.6553,6.662,6.6676,6.6792,6.6871,6.6901,6.689,6.6807,6.6796,6.6724,6.6701,6.6686,6.6659,6.66,0,0]}]]